Wind_Speed
48 51 52 48 45 46 49 50 50 50 50 51 51 51 51 51 49 46 45 45 46 49 49 44 44 46 46 44 43 42 41 38 33 32 33 33 31 28 27 28 29 30 32 33 35 36 36 36 35 36 35 33 32 32 32 31 30 29 28 27 28 30 32 33 34 36 37 37 37 37 37 38 37 37 36 34 33 33 34 35 35 35 35 35 37 38
48 52 51 46 46 48 50 49 50 50 50 51 51 52 52 52 52 50 49 49 49 51 52 48 47 47 44 42 42 42 41 37 32 31 31 32 30 27 27 29 31 31 32 32 33 34 34 34 35 35 34 34 34 34 35 34 32 30 29 28 28 29 30 31 33 35 37 38 38 39 39 39 39 38 37 36 36 36 37 37 37 36 36 37 39 40
50 52 49 47 48 49 49 49 50 50 51 51 52 53 54 53 53 54 52 51 51 52 52 51 51 50 47 45 43 42 39 35 33 31 30 31 30 29 29 30 32 33 32 33 32 32 32 34 35 35 35 35 34 34 34 33 32 30 28 28 28 28 29 31 33 34 36 38 39 40 41 41 41 41 40 39 39 40 40 39 39 39 39 40 41 42
52 52 49 48 49 50 50 51 51 51 52 52 52 54 56 54 55 56 54 52 52 52 52 52 53 52 51 50 46 45 40 34 33 33 32 34 33 32 32 31 33 33 33 33 32 32 32 33 35 35 35 34 32 31 31 30 30 29 28 27 27 27 28 29 31 33 36 37 39 41 42 42 43 43 42 43 43 43 43 43 43 43 43 44 44 45
52 52 50 50 51 52 52 52 52 52 53 53 53 55 56 55 55 56 56 55 53 53 52 53 54 54 54 53 49 47 45 39 36 34 35 37 36 34 33 32 32 33 33 32 31 32 33 34 35 35 34 32 30 29 28 28 28 29 28 27 26 26 27 28 29 31 33 35 38 39 41 42 43 43 44 45 45 45 45 45 46 46 47 47 48 48
50 49 49 50 51 51 52 52 51 52 54 54 54 55 55 56 56 56 56 56 55 55 53 53 54 55 55 55 51 48 47 44 40 37 38 39 36 34 33 32 31 31 31 31 30 31 32 33 34 34 34 32 31 30 30 30 30 31 31 30 30 29 30 31 32 33 33 34 36 37 39 40 42 43 44 45 46 47 47 48 48 48 49 49 50 50
49 47 47 49 50 50 51 50 49 52 55 55 54 54 55 55 55 54 54 54 55 56 55 53 54 56 56 55 54 51 50 47 41 37 38 38 35 32 31 31 30 29 29 29 29 29 30 32 33 33 33 33 33 33 33 34 35 36 36 37 37 37 37 39 40 41 40 38 38 38 38 39 41 42 44 45 47 48 49 49 49 50 50 51 51 51
47 46 46 46 47 48 47 45 46 49 51 52 51 51 51 51 51 51 51 52 53 54 55 55 53 53 56 55 54 53 52 51 45 38 36 36 34 31 28 29 30 30 30 29 31 32 32 33 34 34 35 35 36 36 37 38 39 40 41 42 42 43 44 46 48 48 46 43 42 41 41 41 41 42 43 45 46 47 49 50 51 51 52 52 53 53
43 43 43 43 43 43 41 41 43 45 45 46 46 46 47 47 47 48 49 50 51 52 55 55 49 50 54 54 53 53 50 49 43 33 35 39 37 35 33 31 30 31 32 33 36 40 38 36 37 38 38 39 39 40 41 41 42 43 44 45 47 48 50 51 52 52 49 47 45 44 44 44 45 45 45 46 46 47 48 50 51 52 53 53 54 54
42 42 42 43 42 40 40 41 42 42 43 43 43 43 44 45 45 46 47 48 49 51 53 51 47 47 51 52 53 52 48 46 39 32 38 45 43 41 39 37 36 34 35 36 39 43 44 42 42 42 43 44 45 45 46 46 46 47 48 50 51 53 55 56 56 54 51 49 48 46 46 47 48 48 48 49 49 49 49 50 51 53 54 55 55 55
42 43 43 43 42 41 42 42 42 43 43 42 42 43 44 46 46 47 47 47 48 50 49 46 45 45 48 52 54 50 46 46 44 42 46 48 47 47 45 43 42 40 40 40 41 43 45 47 48 48 49 49 50 50 51 52 53 53 54 54 56 57 58 58 58 57 54 52 50 48 48 49 50 51 51 51 51 52 52 52 53 53 54 55 56 56
45 45 46 45 44 45 46 46 46 45 45 44 45 45 46 48 49 50 50 49 49 50 47 46 47 47 49 53 54 51 48 47 48 48 49 49 50 52 53 51 48 46 46 47 49 49 50 51 52 54 56 57 57 57 58 59 59 60 61 61 61 61 61 61 60 58 56 54 52 50 49 50 52 53 54 54 54 53 53 54 54 55 56 57 57 58
50 49 49 50 49 49 49 49 49 49 48 48 48 47 48 50 52 53 53 52 52 51 50 50 51 52 52 53 54 52 51 50 50 51 52 53 55 55 57 58 57 55 54 54 56 58 59 60 60 60 61 63 64 64 65 65 65 66 66 67 67 66 65 64 63 60 57 54 53 51 50 51 53 55 56 56 56 56 55 55 55 56 57 58 59 60
55 54 53 53 52 51 51 50 50 50 50 50 50 49 49 51 53 55 55 55 55 55 55 55 56 56 55 55 55 54 54 54 53 55 58 59 60 59 59 61 63 64 64 62 62 63 65 66 66 66 65 65 67 68 69 69 70 70 70 69 68 67 67 65 63 62 60 56 54 52 51 51 53 55 57 58 59 58 58 57 57 57 58 59 60 62
59 58 58 56 55 54 53 51 50 51 51 51 50 50 52 52 53 55 55 57 59 60 60 60 61 60 57 58 59 58 59 60 58 61 64 63 63 63 63 64 66 67 68 69 68 68 69 69 70 71 71 70 70 71 71 72 72 72 72 72 70 69 68 66 63 60 58 57 55 53 54 53 53 55 57 59 60 61 61 60 60 59 60 61 62 63
59 60 60 59 58 57 55 53 52 52 52 53 53 54 55 53 52 54 57 58 59 61 62 63 64 63 61 61 62 61 63 64 63 65 66 66 66 66 67 67 68 69 70 71 71 71 72 72 73 74 74 73 71 70 70 69 68 66 66 66 67 66 67 66 64 61 59 57 56 57 58 57 55 55 55 57 59 61 63 63 63 63 62 62 63 65
57 59 58 58 58 56 55 55 54 54 55 57 57 57 56 55 55 57 58 58 57 59 63 64 65 66 64 63 64 65 65 66 66 67 68 68 69 69 69 69 69 70 70 71 72 72 72 73 73 73 72 71 69 66 63 61 60 59 57 57 57 56 56 57 59 60 59 58 57 60 62 61 59 58 59 59 61 61 63 65 66 67 66 65 65 66
57 59 58 57 58 58 57 57 57 57 58 58 58 57 56 57 59 58 58 59 59 61 64 65 65 66 65 65 67 67 67 68 69 70 71 71 71 71 71 72 71 71 71 72 72 72 72 72 73 73 72 71 68 65 61 59 58 57 55 53 53 53 51 50 52 55 56 57 58 60 63 63 63 62 62 63 64 63 63 66 68 70 70 68 67 67
60 61 61 59 60 61 60 59 60 60 59 58 57 57 57 58 59 58 58 59 59 60 62 62 63 64 66 67 67 67 68 70 71 71 71 71 71 71 72 72 72 71 71 72 72 72 72 72 72 72 71 70 68 66 64 63 62 60 58 56 55 55 54 53 53 55 58 60 62 63 64 65 65 64 63 63 63 64 64 66 69 71 72 71 69 68
63 64 64 63 63 64 64 63 63 61 59 58 58 58 59 59 60 58 57 55 56 59 61 62 61 62 66 67 66 68 69 69 69 67 66 65 64 65 66 66 66 66 67 69 69 70 71 71 71 71 70 69 68 68 67 67 68 68 67 65 64 62 61 60 59 61 63 65 65 64 64 63 63 63 63 63 63 64 65 67 69 71 72 71 69 67
63 63 64 64 65 67 68 66 63 60 58 59 60 60 61 61 59 58 58 56 58 62 63 63 61 61 61 60 58 62 64 63 62 62 62 63 63 64 64 64 65 65 66 67 67 68 68 69 71 71 71 70 69 70 70 71 72 72 73 72 72 70 68 66 64 63 64 64 64 64 63 62 62 62 63 63 63 65 66 69 71 71 70 69 68 66
62 62 62 62 64 66 65 62 60 59 59 59 59 59 59 58 56 58 61 59 58 62 62 61 62 61 55 51 52 56 60 62 63 64 65 66 67 68 68 67 67 67 67 67 67 68 68 69 71 71 72 72 72 73 74 75 76 76 76 76 75 75 74 72 69 66 64 62 61 61 62 63 63 63 63 64 64 66 67 69 72 73 71 69 67 65
61 62 63 64 63 63 60 59 59 59 59 58 58 56 54 53 52 55 59 57 55 59 58 57 61 59 51 48 51 56 59 61 63 64 65 66 66 67 68 69 69 69 69 69 69 70 71 72 74 75 77 78 79 80 80 80 79 78 77 76 75 75 75 74 73 71 69 66 64 62 62 63 65 65 65 66 66 67 68 70 73 75 74 72 70 67
60 61 63 63 61 59 59 59 59 58 57 55 54 51 49 49 49 52 54 53 53 55 55 57 62 63 57 54 56 58 59 60 62 63 64 65 65 66 67 69 70 71 71 71 72 73 74 75 77 78 80 81 82 82 82 81 81 80 80 79 78 77 76 74 73 72 71 70 69 67 66 66 67 68 69 69 69 70 71 72 75 77 77 76 74 71
58 58 58 58 58 58 59 58 57 56 55 54 52 52 54 55 56 58 58 59 61 62 62 65 69 70 68 65 65 65 66 66 66 66 66 68 69 70 71 72 73 74 75 76 77 77 77 78 79 80 81 83 84 84 85 85 86 85 84 82 80 79 79 78 77 76 75 74 73 73 71 70 70 71 72 72 72 72 73 74 76 78 79 79 77 76
57 58 57 58 59 60 60 59 58 58 59 59 59 60 63 64 64 64 63 64 67 68 68 69 70 69 67 66 66 66 67 67 67 67 68 69 71 72 74 75 76 77 79 79 80 80 81 81 82 83 84 85 86 87 87 88 89 89 88 85 83 80 79 78 78 79 80 80 80 79 78 76 74 74 75 77 77 77 77 78 79 79 80 81 80 79
59 60 60 61 62 63 64 63 63 64 66 67 67 66 67 67 66 65 65 67 68 67 66 66 65 66 65 64 65 67 69 70 70 70 70 70 72 73 74 76 77 79 80 81 82 83 84 85 86 87 87 88 89 89 89 90 90 90 91 90 89 88 86 84 83 81 81 81 81 81 81 81 80 79 79 80 81 82 82 82 82 83 83 83 84 83
61 63 63 63 64 65 65 66 66 67 68 69 70 69 69 69 68 68 71 72 70 71 72 71 69 72 72 71 72 73 74 75 76 75 75 76 76 77 78 79 80 81 82 83 84 85 86 87 88 88 89 90 91 91 92 92 92 92 93 94 94 94 94 93 92 89 85 82 80 79 79 80 81 82 82 84 85 85 85 85 85 85 85 85 86 86
63 65 64 64 66 66 66 67 67 69 70 70 71 71 71 71 71 72 75 74 73 75 78 76 75 77 77 75 75 76 76 76 77 77 77 77 78 78 78 79 80 81 82 82 83 84 84 85 86 86 87 88 88 89 90 90 91 91 91 92 93 93 94 94 94 93 91 89 87 85 83 82 82 82 82 83 84 86 87 88 88 89 89 89 88 88
64 65 64 65 67 67 65 65 67 69 71 71 71 72 72 72 72 74 75 74 75 77 78 77 78 79 78 77 78 78 78 78 77 77 76 76 75 75 76 77 78 79 80 79 79 79 79 80 80 81 82 84 85 86 87 87 88 88 89 91 92 94 94 94 94 94 94 93 93 92 91 90 89 89 88 87 86 86 87 88 90 90 91 92 92 92
63 64 64 65 67 67 65 64 66 69 70 71 71 71 70 71 72 73 74 74 75 77 77 77 79 81 80 79 79 79 79 78 77 75 74 72 71 70 70 70 72 74 75 75 75 75 76 78 79 81 83 86 87 88 89 90 91 92 93 94 95 95 95 95 94 94 94 94 93 93 93 92 92 93 93 93 93 92 92 92 92 92 92 93 93 93
63 64 64 65 69 69 66 66 69 71 72 74 73 71 70 72 73 74 75 75 76 78 79 79 81 82 81 79 78 78 78 77 76 75 73 73 73 73 73 73 74 76 77 77 77 78 80 82 84 86 88 90 91 92 93 94 94 95 95 95 96 96 96 96 96 96 96 95 95 95 94 94 93 93 93 94 94 94 95 95 95 96 96 95 95 95
64 66 67 68 72 72 69 69 73 74 77 79 75 72 73 74 75 76 77 76 77 79 81 81 81 80 79 78 77 77 77 77 76 75 75 76 78 79 80 82 83 83 84 84 85 86 87 88 89 90 91 92 93 94 95 95 96 96 96 96 97 97 98 98 99 99 100 100 100 99 99 98 97 97 96 96 96 97 97 97 97 98 98 98 98 98
66 67 69 70 74 76 73 73 76 79 82 82 76 73 75 77 77 78 79 78 78 80 81 81 80 78 78 77 78 79 79 79 78 78 78 80 82 83 83 84 85 86 87 88 89 89 90 90 91 92 92 93 94 95 96 97 97 98 98 98 98 99 99 100 101 101 102 103 104 104 104 104 103 103 102 102 102 102 103 102 102 101 101 101 100 99
69 69 71 72 75 77 77 76 79 84 85 83 79 78 79 80 80 80 80 80 81 81 82 81 80 79 79 79 80 81 81 81 81 81 81 82 83 84 84 85 85 86 87 88 89 89 90 91 92 93 93 94 95 96 97 97 98 98 98 99 99 100 100 101 101 102 103 104 105 106 107 107 107 107 107 106 106 107 107 107 106 105 105 104 104 103
71 71 72 73 75 77 78 78 82 86 86 83 82 82 81 79 80 80 81 81 80 80 80 79 79 78 78 78 79 80 81 82 82 81 81 82 84 85 85 85 85 86 86 87 87 88 89 89 90 91 92 92 93 93 94 94 95 96 95 95 95 96 97 97 98 99 100 101 102 104 105 106 107 107 107 107 108 107 107 107 106 105 105 105 105 105
72 72 72 74 75 76 77 79 82 84 84 83 81 78 77 76 76 77 78 78 76 76 76 75 75 76 76 77 78 79 80 82 82 81 81 82 83 83 83 83 83 83 83 83 83 83 83 83 84 85 86 86 86 87 87 88 89 90 90 90 90 91 92 92 93 94 95 97 98 98 99 101 102 103 105 105 106 105 105 104 104 103 103 103 103 103
72 73 72 73 74 75 75 77 79 81 81 80 76 73 72 72 72 74 75 74 73 73 73 72 71 72 73 74 75 77 78 80 80 78 77 77 78 78 78 78 78 78 78 78 78 78 78 79 80 80 80 81 81 81 83 84 86 87 87 88 88 89 89 89 90 91 93 94 95 95 96 97 98 99 101 102 103 103 103 102 101 101 101 101 101 100
73 73 72 71 73 73 72 73 75 76 75 74 70 67 67 67 67 67 69 71 69 68 68 69 69 70 71 72 73 75 76 77 77 75 73 73 73 73 73 74 74 74 75 75 76 76 76 77 77 77 78 78 79 80 82 84 85 87 87 87 87 87 87 87 88 89 90 90 91 92 93 94 95 97 98 99 100 101 101 101 100 99 99 99 100 100
72 71 70 69 70 69 68 69 70 70 69 66 63 61 61 62 62 61 63 66 64 62 64 66 67 67 68 69 70 71 72 72 72 71 71 70 70 70 70 71 72 72 72 73 74 75 76 76 76 77 78 79 80 82 83 85 85 86 86 86 86 85 86 87 88 88 88 88 89 89 90 91 93 94 95 97 98 99 99 99 99 99 99 99 99 100
68 67 66 67 66 65 64 65 65 65 63 59 57 56 56 57 57 58 58 59 58 58 60 62 63 64 65 66 67 68 68 68 69 69 69 68 68 68 68 69 69 70 71 72 74 75 77 77 78 79 79 80 81 82 83 85 85 85 85 86 86 86 87 88 88 88 88 88 88 89 89 90 91 92 93 95 96 97 97 97 98 99 99 100 100 100
62 61 62 62 61 60 59 60 62 62 58 53 52 52 53 54 54 54 55 55 55 57 59 60 61 62 63 65 66 66 67 67 67 67 67 67 67 67 67 68 69 70 72 73 75 77 78 78 78 79 79 79 81 82 84 86 87 87 88 88 89 89 90 90 91 91 91 90 90 90 91 91 92 93 93 94 95 96 96 96 97 98 98 99 100 100
56 56 57 57 55 55 56 58 59 58 53 50 50 51 51 52 53 53 54 55 56 58 59 60 61 62 63 63 64 64 65 65 65 66 66 66 67 67 68 69 70 71 72 73 75 76 78 79 79 79 80 81 82 84 86 88 88 89 89 90 90 91 91 91 91 91 91 90 90 90 90 91 91 92 93 93 95 96 96 95 96 97 98 98 99 100
52 51 52 52 52 54 56 57 56 53 50 49 51 50 50 52 53 53 55 56 55 56 58 59 60 60 61 62 63 63 64 64 65 65 66 66 66 67 68 69 69 70 71 72 74 76 78 79 80 81 81 82 83 85 86 87 89 89 89 89 89 90 90 90 90 91 90 90 90 90 90 91 91 91 92 92 93 94 94 94 95 97 98 98 99 100
49 47 49 51 52 53 54 54 53 50 48 49 51 50 50 51 52 53 55 56 55 56 57 59 59 59 60 62 63 63 63 64 64 65 65 65 65 66 67 68 69 70 71 73 74 76 77 79 80 81 82 81 82 83 84 85 86 87 87 87 88 89 89 89 90 90 89 89 89 89 90 90 91 91 91 92 93 93 93 93 94 95 96 97 98 99
46 44 48 51 51 52 51 49 48 48 47 48 49 49 49 50 51 52 55 56 56 57 57 58 58 59 59 61 62 63 63 64 64 64 64 64 65 65 66 67 68 69 70 71 72 73 75 76 78 79 80 79 79 80 81 82 84 86 86 87 87 88 88 89 89 88 88 87 87 87 87 88 89 89 89 90 91 92 92 92 93 93 94 95 96 97
43 43 49 51 50 51 51 45 43 46 47 48 49 49 49 50 51 52 54 55 55 56 57 57 58 59 60 61 62 63 63 63 63 63 63 63 63 64 64 65 65 66 66 67 69 71 73 75 76 77 78 78 78 79 80 81 81 83 85 85 86 86 86 86 86 86 85 84 84 84 84 84 85 85 85 85 87 88 89 90 91 92 92 93 94 95
41 43 48 50 49 50 49 44 42 45 47 47 48 48 48 50 50 51 52 53 54 55 56 57 58 59 60 61 61 62 62 62 63 63 62 61 61 62 62 62 62 62 64 66 68 70 72 74 75 76 76 76 76 77 78 78 79 80 81 82 83 83 83 83 84 84 83 82 81 81 81 81 80 80 80 80 80 81 83 84 85 87 88 89 90 92
41 43 45 46 47 48 47 43 42 45 46 46 46 47 48 49 50 50 51 52 53 54 55 56 57 59 60 60 61 61 61 61 61 61 60 59 59 59 59 59 61 62 65 67 68 70 72 73 73 73 73 72 73 73 74 75 76 77 78 79 79 79 79 79 78 77 76 75 74 73 72 72 71 71 71 71 71 73 74 75 77 80 81 82 83 86
38 41 42 44 47 47 44 41 42 46 47 45 45 47 48 49 50 51 52 53 54 55 56 57 58 59 59 60 60 60 60 59 58 58 57 57 57 57 58 59 61 64 66 67 68 68 68 68 68 68 68 68 69 70 71 71 72 73 74 74 74 73 72 72 71 70 69 68 67 65 64 63 62 62 62 61 61 62 63 64 66 69 71 72 74 77
35 39 42 46 47 45 42 41 43 46 47 45 45 47 49 50 51 52 53 54 55 56 57 58 58 58 58 58 58 57 57 56 55 55 55 54 55 56 58 61 64 65 66 67 66 65 64 63 64 64 64 65 66 67 68 68 69 70 70 69 69 68 68 68 67 66 65 64 63 63 62 61 60 60 59 59 58 58 57 56 57 59 61 62 64 67
Wind_Direction
277 277 277 280 283 281 279 280 282 284 284 285 286 286 287 288 289 291 290 288 288 287 286 287 286 284 287 290 292 290 289 290 295 294 289 288 288 286 283 278 272 266 264 265 266 267 269 271 274 275 276 277 278 279 281 281 279 277 275 273 270 267 265 264 264 264 265 265 266 266 267 266 265 263 264 264 263 262 261 262 262 263 264 265 265 265
277 277 279 281 280 278 279 280 281 281 282 283 284 284 285 286 288 289 288 288 288 288 289 290 288 286 287 288 287 288 289 293 296 293 290 288 287 284 278 273 270 268 266 266 266 267 269 270 271 272 273 273 274 277 279 280 279 278 276 274 272 270 269 267 264 262 261 261 261 261 261 261 262 262 263 263 263 262 262 262 263 264 264 265 264 264
276 277 279 280 278 278 279 279 279 280 281 282 283 283 284 285 286 286 286 287 287 287 289 290 290 290 290 288 286 287 289 294 294 290 287 282 280 279 274 272 273 272 271 270 269 268 266 266 268 269 270 271 272 273 275 277 278 277 275 272 271 271 270 268 267 264 262 260 259 258 258 259 260 261 262 263 263 263 263 263 263 263 264 264 263 263
274 276 277 277 277 278 278 278 278 279 280 281 282 282 283 284 285 284 285 285 285 285 287 288 290 291 290 289 290 290 291 292 289 287 284 279 277 276 275 274 274 274 274 274 272 268 264 262 264 265 266 269 271 272 274 275 274 274 272 271 271 272 271 270 269 268 267 265 263 261 259 258 258 259 260 261 263 263 263 263 263 262 262 262 262 262
272 274 275 275 276 276 276 277 277 278 278 278 279 279 280 282 282 283 285 285 285 284 285 288 289 290 290 291 292 294 294 292 290 287 283 280 281 280 280 278 276 276 275 272 269 266 263 261 261 262 264 267 269 270 270 270 269 268 269 270 273 275 277 278 277 275 273 272 270 268 266 263 261 260 260 260 261 262 262 262 262 262 262 262 262 262
270 271 272 272 273 274 274 274 276 276 276 275 276 276 278 279 280 281 282 283 284 284 284 286 286 286 288 290 292 293 294 293 294 293 288 286 287 286 286 284 280 277 274 270 266 262 260 259 259 260 262 264 267 268 268 268 267 267 267 269 273 277 281 285 286 286 283 280 277 274 271 268 265 263 262 261 261 260 260 261 261 262 263 263 263 263
270 270 270 270 271 271 272 273 275 275 274 274 274 275 276 277 278 279 279 280 282 283 284 284 284 284 285 288 290 291 292 292 294 297 296 295 296 294 292 291 288 282 276 270 262 255 252 253 255 257 260 263 265 267 269 271 272 272 272 273 274 277 281 286 289 290 289 286 282 279 275 272 269 267 265 263 261 260 260 261 261 262 263 263 264 264
271 271 270 270 270 271 272 274 273 272 272 274 275 275 275 276 276 277 277 278 279 281 282 282 284 284 283 285 287 289 292 295 299 302 300 300 301 300 297 293 289 285 279 269 258 255 252 251 253 254 257 261 264 267 270 273 275 276 277 277 277 279 282 286 288 289 288 286 283 279 276 273 271 268 267 265 264 263 262 262 262 262 262 262 263 263
271 271 271 271 272 274 275 274 272 272 274 276 277 277 277 276 276 276 275 276 276 278 278 279 284 284 282 283 285 288 292 300 307 308 302 302 301 297 294 288 284 279 276 269 263 264 263 257 255 254 254 256 260 264 267 270 272 275 277 278 279 280 282 284 286 287 287 285 282 278 275 273 271 270 269 267 267 266 265 265 264 263 262 262 261 261
271 271 272 274 276 278 278 276 274 275 276 277 277 278 278 277 276 275 274 274 275 274 275 279 284 285 282 280 281 285 292 301 306 302 299 302 299 294 290 286 283 278 273 270 268 271 272 268 264 261 258 257 259 261 263 265 267 270 272 274 277 278 280 283 285 286 286 285 282 278 275 273 271 271 270 269 268 267 266 265 265 265 264 263 262 261
270 271 273 276 280 281 281 280 280 279 278 278 278 278 278 277 276 275 274 274 274 273 274 278 282 283 280 278 278 282 290 296 298 296 296 297 296 294 291 287 285 283 280 277 274 273 272 271 271 269 267 264 263 265 267 268 270 272 273 274 276 278 280 282 284 286 286 285 283 279 276 273 271 271 270 269 268 267 266 265 264 263 263 263 263 262
273 274 276 278 282 284 285 284 283 281 280 280 280 279 279 277 276 275 274 274 274 274 275 277 278 277 274 274 277 282 286 290 292 293 293 294 294 295 294 290 287 285 284 283 281 278 275 272 271 271 272 272 271 272 273 274 276 278 279 280 282 282 283 284 285 285 284 283 281 278 275 273 272 271 270 270 269 267 266 265 264 262 261 261 261 261
274 276 278 280 282 283 284 283 283 282 281 280 280 280 280 279 279 278 276 277 276 275 275 275 274 271 268 270 275 280 285 287 287 287 288 290 291 292 293 293 291 288 284 282 281 281 280 278 275 273 274 276 278 278 279 279 280 281 282 283 284 285 285 286 285 284 283 280 278 275 272 271 271 271 271 270 269 268 266 264 264 263 261 260 260 260
274 274 277 280 281 281 282 283 282 281 280 279 279 280 280 280 281 280 280 280 278 276 275 273 271 268 266 269 273 278 283 283 282 283 284 287 290 291 291 291 291 290 288 286 284 282 281 281 282 280 278 277 278 279 280 281 282 282 283 283 284 284 284 284 283 282 280 278 275 272 268 268 268 269 269 269 269 268 266 265 264 263 262 261 260 259
276 274 274 277 279 280 281 280 278 277 277 277 278 278 278 279 281 282 282 281 279 277 275 273 271 268 268 271 274 278 281 279 278 278 281 285 288 289 288 287 286 287 288 288 287 285 284 285 286 286 285 283 282 281 281 280 280 280 281 281 281 281 282 281 279 278 276 275 273 269 267 267 268 267 267 267 268 268 267 266 264 264 263 263 262 260
275 274 275 277 279 279 277 275 274 275 275 276 276 276 278 280 282 282 281 280 279 278 276 274 274 271 270 272 275 278 279 279 278 278 281 284 285 285 285 284 284 284 284 285 286 286 286 286 285 285 285 285 285 284 283 282 280 278 277 276 275 275 274 274 273 272 271 270 269 267 268 269 269 268 267 266 266 267 268 268 266 264 262 261 261 261
274 275 276 277 277 276 275 274 274 275 276 277 277 279 282 284 283 281 281 281 280 278 277 278 277 276 275 274 275 277 278 279 279 280 280 281 282 283 283 283 284 283 283 283 283 283 283 283 283 283 283 284 283 283 281 279 278 276 273 271 270 269 267 264 262 262 263 265 264 264 268 270 270 270 269 268 267 266 266 266 266 264 262 259 258 259
276 276 276 276 277 277 277 277 278 278 279 281 282 283 284 282 281 281 281 281 280 279 279 281 280 279 279 278 277 279 280 280 280 280 280 281 282 282 282 283 283 282 282 282 282 282 282 282 282 282 282 282 282 281 279 276 274 272 271 268 267 267 265 262 257 255 256 259 261 263 265 267 269 269 269 268 267 265 264 263 263 263 261 259 257 257
280 280 277 275 277 280 280 280 280 282 284 285 286 284 282 280 280 280 279 279 280 280 280 281 281 280 280 281 281 282 283 282 282 281 281 281 280 280 280 280 280 281 281 282 282 282 283 283 282 281 281 280 279 278 277 276 275 273 272 270 268 266 265 263 261 259 257 260 263 265 264 265 265 265 264 262 261 260 259 259 260 260 259 258 256 256
282 283 282 279 279 280 282 282 283 285 285 285 283 282 281 281 281 279 278 278 278 278 279 281 281 280 282 283 282 282 282 281 281 281 280 278 277 277 277 278 278 278 278 278 278 279 279 279 278 277 276 275 274 274 274 274 275 275 275 275 274 272 269 266 264 263 262 264 266 266 265 263 262 261 260 259 257 256 255 255 255 257 258 256 255 254
284 284 285 284 282 281 283 285 286 285 283 282 281 281 281 280 280 278 277 277 277 277 278 278 278 279 282 283 281 280 280 279 279 278 278 277 277 277 277 276 276 275 275 274 274 273 273 273 272 271 270 270 270 271 271 272 273 274 274 275 275 276 275 274 272 269 268 267 267 267 266 264 261 258 257 257 256 254 255 255 255 256 256 255 253 252
285 285 285 285 285 285 286 287 286 283 282 280 279 279 279 278 278 278 278 281 280 278 277 278 278 278 280 279 277 276 276 277 278 277 277 277 277 277 277 276 275 275 274 272 271 270 269 268 267 267 267 268 269 271 273 274 274 274 274 274 274 274 274 275 275 274 272 270 268 266 265 263 261 258 256 255 254 254 254 255 256 256 256 254 251 250
284 285 284 285 286 287 286 285 284 282 281 280 278 278 278 278 278 277 278 280 278 275 276 276 276 277 277 275 274 274 274 276 276 276 276 275 275 276 276 276 276 275 273 271 270 269 268 268 268 267 268 269 269 271 272 272 273 273 273 273 273 273 272 272 272 272 271 270 268 265 262 261 259 258 256 254 253 253 253 253 254 255 255 253 251 249
282 283 284 284 285 284 283 283 283 281 280 279 279 278 278 279 279 277 276 277 275 273 274 273 273 275 275 273 271 272 272 273 273 272 272 271 271 272 273 273 273 273 272 272 270 270 269 268 268 268 268 268 269 270 270 270 270 270 270 270 270 269 269 268 267 267 267 266 266 264 262 260 258 257 255 254 252 252 251 251 252 253 253 252 250 247
280 280 280 281 281 281 282 282 281 279 278 277 276 276 276 276 276 274 273 273 272 271 271 271 271 274 275 274 272 272 272 271 270 269 268 267 268 268 268 269 270 270 271 271 271 270 269 269 268 268 268 268 269 269 270 270 271 271 271 270 269 268 267 266 265 264 263 262 263 263 262 261 259 256 254 253 252 251 251 250 251 252 252 251 249 247
277 277 276 276 276 277 278 278 277 276 276 275 274 275 276 276 276 276 275 272 271 272 272 271 271 273 274 273 272 272 272 271 269 268 267 267 267 267 267 267 268 268 269 269 269 269 269 269 269 269 269 270 270 270 270 270 271 271 271 271 270 269 268 267 266 265 264 263 263 263 263 262 260 257 255 253 251 250 250 250 250 251 252 251 249 247
275 275 274 274 275 276 277 277 277 276 275 275 275 275 276 277 277 277 275 273 274 274 272 271 272 273 272 271 272 272 272 271 270 269 268 268 267 267 267 267 268 268 268 268 268 268 269 269 270 270 271 271 271 271 271 271 270 270 270 270 270 270 269 269 269 268 267 265 264 264 264 263 261 259 257 255 254 252 250 248 247 248 249 250 249 248
275 274 274 275 275 275 276 277 276 276 275 275 276 276 275 276 275 275 274 273 274 273 271 271 273 273 273 273 272 272 272 272 272 271 270 270 270 270 269 269 269 269 269 269 269 269 269 270 270 270 271 271 271 271 271 271 271 271 271 271 271 272 271 271 271 270 268 265 263 263 263 263 263 262 260 259 258 257 256 253 250 248 248 248 248 247
274 274 275 274 274 274 274 275 275 275 275 275 275 275 275 274 274 274 274 274 274 273 274 275 275 274 274 275 274 273 273 273 273 272 272 272 272 271 271 271 270 270 269 269 269 270 270 270 271 271 271 271 271 271 272 272 272 273 273 274 274 275 274 274 274 273 271 269 267 265 263 262 262 262 262 261 261 261 261 261 259 257 255 253 252 250
274 275 276 275 275 275 275 275 276 275 275 275 275 274 274 274 274 274 274 275 275 275 276 277 276 275 275 275 274 274 274 273 273 273 273 273 273 272 272 271 270 270 269 269 269 269 270 270 271 271 272 272 272 272 272 272 272 273 273 275 276 276 276 276 275 275 274 273 271 269 267 265 264 262 262 261 261 261 262 263 263 262 261 260 259 258
275 276 277 277 277 277 278 278 277 275 275 275 274 274 276 276 276 275 275 275 275 275 275 275 275 274 275 275 275 275 274 274 274 273 273 273 272 270 268 267 268 267 267 267 267 268 269 269 270 271 272 273 273 273 273 273 273 273 274 275 275 275 275 275 274 274 274 273 273 272 270 269 267 265 263 262 261 260 261 261 262 262 263 263 262 262
277 278 279 279 278 279 281 280 277 276 275 274 274 277 280 279 277 277 276 275 275 275 275 274 274 275 275 275 275 275 274 274 273 273 272 271 270 269 268 268 269 270 270 270 270 271 271 272 272 273 274 274 274 274 274 274 274 274 274 274 274 274 274 274 273 273 273 272 272 272 272 270 269 268 266 264 263 261 260 260 259 259 260 261 262 262
279 280 280 280 279 280 281 280 278 276 274 274 280 284 282 279 277 276 275 274 275 275 276 275 275 276 276 276 275 275 274 274 273 273 272 271 270 270 270 271 273 274 274 274 274 274 275 275 275 275 275 275 276 276 276 275 275 274 274 274 274 273 273 273 272 272 272 272 271 271 271 271 270 269 268 267 266 264 263 262 260 259 258 259 260 261
280 280 281 281 280 281 282 281 278 275 275 280 286 285 281 279 277 276 275 274 274 274 274 275 276 276 276 276 276 276 275 275 275 274 274 273 273 272 273 273 274 274 275 275 276 276 277 277 277 277 277 277 277 277 276 276 276 275 274 274 274 273 272 272 271 271 271 271 270 270 270 270 270 269 268 268 267 267 266 266 264 263 261 259 258 258
281 281 281 280 279 280 281 280 277 276 280 285 285 282 280 278 276 275 275 275 274 274 274 275 276 277 277 277 277 277 277 277 277 277 277 277 277 277 277 277 277 277 277 277 278 278 278 278 278 278 278 277 277 277 277 277 277 276 276 275 274 274 273 272 271 271 270 270 269 269 269 269 269 268 268 267 267 267 267 267 267 266 264 263 261 259
283 282 281 280 279 279 279 279 277 279 283 284 282 282 281 279 278 278 277 276 275 275 275 276 277 278 278 278 278 278 278 277 277 277 278 278 278 278 279 279 279 280 280 280 280 280 280 280 280 280 280 280 280 280 280 280 279 279 279 278 277 277 275 274 274 273 272 270 269 269 269 269 268 268 267 267 266 266 266 266 266 266 265 265 263 262
282 281 280 279 278 278 278 278 278 279 280 280 280 281 280 279 279 279 278 277 277 277 277 277 278 278 278 278 278 278 277 277 276 277 277 278 279 279 280 280 281 281 282 282 282 283 283 283 282 282 282 281 281 282 282 281 281 281 280 280 279 279 278 277 277 276 275 273 272 271 270 269 269 268 268 267 266 265 264 264 264 264 263 263 263 263
280 279 279 278 277 277 277 277 277 278 278 279 280 279 279 279 279 278 278 278 277 277 278 279 278 278 278 277 277 277 277 277 277 277 278 279 280 281 282 282 283 283 283 283 283 283 283 282 282 282 282 282 281 281 281 281 281 280 280 280 280 279 279 278 277 276 275 275 274 273 272 272 271 270 269 269 268 267 265 264 263 262 261 261 261 260
279 279 278 277 277 278 278 277 278 278 279 280 281 281 281 281 280 279 280 279 278 279 280 280 279 279 278 278 278 278 278 279 280 280 281 281 283 284 284 285 284 284 284 284 284 283 283 282 282 282 282 282 282 281 281 281 281 281 281 281 280 280 279 278 277 276 275 274 274 273 273 273 272 272 271 271 270 269 268 267 265 263 262 260 259 258
279 278 278 277 278 279 278 278 279 280 281 283 284 285 284 282 281 281 281 282 283 282 280 280 279 279 279 279 279 280 281 283 284 285 284 284 285 285 286 285 285 285 285 285 285 284 284 284 284 283 283 284 284 283 283 283 283 282 282 281 281 280 280 279 278 277 276 275 274 274 273 273 272 272 272 271 271 271 270 269 268 266 264 262 260 258
279 278 278 278 278 279 279 280 280 280 281 284 287 286 283 282 282 282 282 284 284 282 280 280 279 279 279 280 282 284 285 286 286 287 287 286 286 286 286 286 286 286 286 286 286 285 285 285 285 285 285 285 285 285 284 284 283 283 283 282 282 281 281 280 279 278 277 277 276 275 274 273 273 272 272 271 271 270 270 269 269 268 267 265 263 261
279 278 278 278 279 280 280 280 280 280 283 285 285 283 282 282 282 282 282 282 281 280 279 279 280 281 282 283 284 286 286 286 287 287 287 287 287 287 288 288 287 287 287 287 287 287 287 287 287 287 287 287 287 286 286 285 285 285 285 284 284 284 283 282 281 280 279 278 277 276 275 274 273 272 271 271 270 270 269 269 268 268 267 267 266 264
278 278 278 280 280 280 279 278 279 282 286 287 285 283 284 284 283 282 281 280 279 280 280 281 282 283 284 285 285 285 286 286 287 287 288 288 289 289 289 289 289 289 288 288 288 288 288 288 288 288 288 288 288 288 288 287 287 287 287 286 286 285 284 284 283 282 281 280 279 278 276 275 274 273 272 271 270 269 269 268 268 268 267 267 266 266
277 279 281 280 278 277 277 278 281 285 288 288 285 284 283 282 281 281 281 280 280 281 282 283 283 284 285 286 286 286 286 287 287 288 289 289 290 290 290 290 290 289 289 289 289 289 290 290 290 290 290 290 290 290 290 289 289 288 288 287 287 286 285 284 283 282 281 280 279 278 277 276 275 274 273 271 270 269 269 268 267 267 266 266 266 265
279 280 280 278 276 276 277 280 283 286 288 286 284 283 281 281 282 283 282 283 283 284 284 284 285 286 286 286 287 287 288 288 289 290 290 290 291 290 290 290 290 290 290 290 290 290 290 291 291 291 291 291 291 291 290 290 290 289 289 288 287 286 285 284 283 282 282 281 280 279 278 277 276 275 274 273 271 270 269 268 267 266 265 265 265 264
279 280 278 276 276 277 278 280 284 286 285 283 282 282 282 283 283 282 283 284 285 286 286 286 287 287 287 287 288 288 289 290 290 291 291 291 291 290 290 290 290 291 291 291 291 291 292 292 292 292 292 292 292 291 291 291 290 290 289 288 288 287 286 285 284 283 282 282 281 280 279 278 276 275 274 273 272 271 270 269 268 266 265 265 264 264
279 278 276 276 277 278 279 281 284 283 281 280 281 282 283 283 283 283 284 285 286 286 287 287 287 287 287 288 289 289 290 291 291 291 291 291 291 291 291 291 291 292 292 293 293 293 293 293 293 294 294 293 293 292 292 291 291 290 290 289 288 288 287 287 286 285 284 283 282 281 280 279 277 276 275 274 273 272 271 270 269 267 266 265 265 264
280 276 275 277 279 280 281 283 282 280 279 279 280 281 282 282 283 284 285 285 286 286 287 287 288 288 289 289 290 290 291 291 291 291 291 292 292 292 292 292 293 293 294 295 295 295 296 296 295 295 295 295 294 293 293 292 291 290 289 289 289 289 288 287 287 286 285 285 284 283 282 281 280 279 278 277 275 274 273 272 271 269 268 267 266 265
281 278 278 280 280 280 282 284 283 280 278 279 281 282 282 282 283 285 285 286 287 287 287 288 289 289 289 290 290 291 291 291 291 292 293 293 294 294 294 294 294 295 297 297 297 298 297 297 297 297 297 296 295 294 293 292 291 290 290 291 290 290 289 288 288 288 288 288 287 286 285 284 284 283 281 280 278 277 275 274 273 271 270 269 268 267
282 281 282 281 279 280 283 285 285 282 280 280 281 282 283 284 285 286 286 287 287 288 289 289 290 290 290 291 291 291 291 292 293 294 295 295 295 294 294 295 297 299 300 300 299 299 299 299 299 299 298 297 296 295 293 293 293 293 293 293 292 291 291 292 292 292 292 291 290 289 288 287 286 285 284 283 282 280 278 277 276 275 273 271 269 268
283 281 281 281 282 284 285 285 285 284 283 283 283 283 284 286 286 286 287 288 289 290 291 291 291 291 291 291 291 291 292 293 294 295 296 296 295 295 297 299 301 302 302 302 301 301 301 301 300 300 299 298 296 295 295 297 298 297 297 296 296 296 296 295 295 294 293 292 290 289 289 288 287 286 285 284 283 281 280 278 277 276 276 275 272 270
Height
5817 5813 5811 5816 5819 5816 5812 5811 5810 5808 5807 5805 5804 5803 5802 5800 5800 5803 5803 5801 5800 5795 5793 5799 5798 5794 5794 5794 5795 5795 5794 5796 5798 5797 5794 5794 5794 5794 5792 5789 5786 5784 5784 5784 5784 5783 5783 5784 5784 5782 5782 5782 5782 5782 5782 5782 5782 5782 5782 5782 5781 5781 5780 5780 5780 5779 5778 5778 5778 5778 5778 5778 5778 5778 5778 5779 5779 5780 5780 5780 5780 5780 5780 5780 5780 5779
5811 5806 5808 5813 5813 5809 5808 5807 5805 5803 5802 5801 5799 5797 5796 5795 5794 5796 5796 5795 5794 5790 5787 5790 5789 5788 5791 5791 5790 5789 5789 5791 5793 5792 5789 5788 5787 5787 5785 5782 5780 5779 5780 5781 5781 5781 5781 5780 5779 5778 5778 5778 5778 5778 5777 5777 5777 5777 5777 5777 5777 5776 5776 5775 5775 5774 5773 5773 5772 5772 5772 5772 5772 5773 5773 5773 5774 5774 5774 5774 5775 5775 5775 5775 5774 5774
5804 5802 5805 5807 5805 5804 5803 5802 5800 5798 5798 5796 5795 5792 5790 5791 5789 5788 5790 5790 5788 5785 5782 5782 5780 5780 5783 5784 5784 5785 5786 5787 5787 5786 5784 5782 5781 5780 5778 5777 5776 5776 5777 5777 5778 5778 5778 5776 5775 5774 5774 5774 5774 5773 5773 5772 5772 5772 5772 5772 5772 5772 5771 5771 5770 5770 5769 5768 5767 5767 5767 5767 5767 5767 5768 5768 5768 5768 5768 5768 5769 5769 5768 5768 5768 5767
5797 5797 5800 5800 5799 5798 5797 5795 5794 5793 5793 5792 5790 5787 5785 5786 5784 5782 5783 5784 5783 5780 5778 5776 5774 5774 5774 5774 5777 5778 5780 5782 5781 5779 5778 5775 5774 5773 5773 5774 5772 5772 5772 5772 5773 5774 5774 5773 5772 5770 5770 5769 5769 5768 5768 5768 5768 5768 5768 5768 5768 5767 5767 5766 5766 5765 5765 5764 5763 5763 5762 5762 5762 5762 5762 5762 5762 5762 5762 5762 5762 5761 5761 5761 5760 5760
5793 5793 5794 5794 5792 5792 5791 5789 5788 5787 5787 5786 5785 5782 5781 5781 5780 5778 5777 5776 5776 5775 5774 5771 5768 5767 5766 5767 5770 5770 5771 5773 5774 5773 5771 5767 5767 5768 5769 5770 5768 5768 5767 5767 5768 5769 5769 5769 5767 5766 5765 5764 5764 5764 5763 5763 5763 5763 5763 5763 5763 5763 5763 5762 5762 5761 5761 5760 5759 5759 5758 5758 5757 5757 5757 5756 5756 5756 5755 5755 5754 5754 5754 5754 5754 5754
5788 5788 5788 5788 5786 5785 5784 5783 5782 5781 5781 5780 5779 5777 5776 5776 5775 5774 5773 5771 5769 5768 5769 5768 5764 5762 5761 5761 5764 5764 5763 5764 5765 5765 5762 5760 5763 5765 5765 5764 5764 5764 5763 5763 5764 5764 5764 5763 5763 5762 5761 5761 5760 5760 5759 5759 5758 5758 5758 5758 5758 5758 5758 5758 5758 5758 5757 5757 5756 5755 5754 5753 5753 5753 5752 5752 5751 5750 5749 5748 5748 5748 5748 5748 5747 5747
5782 5782 5782 5781 5780 5779 5778 5778 5777 5775 5773 5773 5773 5772 5771 5771 5770 5769 5768 5766 5764 5762 5762 5762 5759 5757 5757 5757 5757 5757 5755 5755 5757 5757 5753 5754 5757 5760 5760 5760 5760 5760 5759 5759 5758 5758 5758 5758 5758 5758 5757 5757 5756 5755 5755 5754 5753 5753 5752 5752 5752 5752 5752 5752 5752 5752 5752 5752 5752 5751 5750 5749 5748 5748 5747 5747 5746 5745 5745 5744 5743 5743 5742 5742 5741 5741
5776 5775 5775 5775 5774 5772 5773 5773 5771 5768 5767 5767 5767 5766 5765 5765 5764 5763 5762 5761 5759 5758 5757 5756 5755 5754 5753 5753 5752 5751 5749 5747 5749 5749 5747 5749 5751 5754 5756 5756 5756 5755 5755 5754 5752 5752 5753 5754 5754 5753 5753 5752 5751 5751 5750 5749 5748 5747 5747 5746 5746 5745 5745 5745 5745 5745 5745 5746 5746 5745 5744 5744 5743 5742 5742 5741 5741 5740 5740 5739 5739 5738 5737 5736 5735 5735
5769 5768 5768 5768 5767 5767 5767 5767 5764 5762 5761 5762 5761 5760 5759 5759 5758 5757 5756 5754 5754 5753 5752 5751 5751 5751 5750 5750 5747 5745 5744 5741 5742 5741 5740 5743 5745 5747 5751 5752 5752 5751 5749 5749 5747 5746 5747 5749 5749 5748 5748 5747 5746 5746 5745 5744 5743 5742 5741 5740 5739 5739 5738 5739 5738 5738 5738 5738 5739 5738 5738 5738 5737 5736 5736 5736 5735 5735 5734 5734 5733 5732 5731 5730 5729 5728
5763 5762 5762 5761 5762 5762 5761 5760 5759 5758 5757 5756 5756 5755 5754 5753 5752 5751 5750 5749 5748 5747 5748 5748 5748 5747 5747 5746 5743 5742 5741 5738 5739 5738 5735 5736 5738 5740 5743 5744 5745 5745 5744 5744 5743 5741 5741 5741 5742 5742 5742 5741 5740 5739 5739 5738 5738 5737 5736 5735 5734 5733 5732 5732 5731 5731 5731 5731 5731 5731 5731 5731 5730 5730 5729 5729 5729 5728 5728 5727 5727 5726 5725 5724 5724 5723
5758 5757 5757 5757 5757 5757 5756 5755 5755 5754 5752 5752 5751 5750 5749 5747 5746 5745 5744 5745 5743 5742 5745 5746 5745 5744 5743 5740 5737 5739 5738 5736 5736 5734 5730 5730 5731 5731 5734 5736 5736 5736 5737 5737 5737 5737 5735 5734 5733 5733 5733 5733 5733 5732 5731 5731 5730 5730 5730 5729 5728 5727 5726 5725 5725 5724 5724 5724 5724 5724 5724 5723 5723 5722 5722 5721 5721 5721 5721 5720 5719 5719 5718 5718 5717 5717
5752 5752 5752 5753 5753 5752 5750 5749 5749 5749 5748 5747 5746 5745 5743 5741 5740 5739 5739 5740 5738 5738 5742 5742 5740 5740 5739 5735 5732 5734 5735 5732 5731 5728 5724 5724 5725 5724 5724 5726 5728 5729 5730 5729 5727 5727 5727 5726 5726 5725 5723 5723 5723 5724 5724 5723 5723 5722 5722 5721 5720 5720 5719 5719 5718 5718 5717 5717 5716 5716 5716 5715 5715 5715 5714 5714 5713 5713 5713 5712 5712 5712 5711 5710 5710 5709
5745 5746 5746 5746 5746 5746 5743 5742 5743 5742 5742 5741 5740 5740 5737 5735 5734 5732 5732 5733 5733 5735 5736 5736 5734 5732 5733 5732 5730 5730 5730 5728 5726 5723 5720 5719 5719 5719 5718 5716 5717 5719 5721 5721 5720 5718 5716 5716 5716 5717 5717 5716 5715 5715 5715 5715 5714 5714 5714 5713 5713 5712 5711 5711 5710 5710 5709 5709 5709 5709 5708 5708 5707 5707 5706 5706 5705 5705 5705 5705 5705 5705 5704 5703 5703 5702
5738 5740 5741 5739 5739 5739 5737 5736 5735 5735 5735 5733 5733 5733 5730 5729 5727 5723 5725 5726 5726 5728 5727 5727 5726 5725 5727 5727 5725 5726 5723 5721 5722 5719 5714 5713 5713 5713 5713 5711 5708 5707 5707 5709 5710 5709 5707 5706 5705 5706 5708 5710 5709 5708 5707 5706 5705 5705 5704 5704 5704 5703 5703 5703 5702 5701 5701 5701 5701 5701 5701 5700 5700 5699 5698 5698 5697 5697 5697 5697 5697 5697 5696 5696 5695 5694
5730 5733 5736 5732 5731 5734 5732 5730 5728 5727 5727 5726 5727 5726 5723 5725 5722 5717 5719 5719 5718 5717 5716 5718 5717 5719 5724 5722 5719 5719 5714 5714 5717 5713 5708 5707 5706 5705 5705 5704 5702 5700 5699 5697 5697 5697 5697 5697 5696 5694 5694 5696 5698 5699 5699 5698 5698 5697 5696 5696 5696 5695 5694 5694 5693 5693 5692 5691 5692 5692 5692 5692 5692 5691 5691 5690 5689 5689 5688 5688 5688 5688 5688 5687 5687 5687
5720 5724 5729 5725 5723 5727 5726 5723 5722 5721 5720 5720 5720 5718 5717 5720 5718 5712 5710 5710 5710 5707 5705 5709 5709 5712 5719 5717 5713 5711 5707 5708 5709 5706 5704 5701 5699 5697 5696 5695 5694 5693 5692 5690 5688 5687 5687 5687 5687 5685 5684 5683 5684 5685 5686 5686 5686 5687 5687 5687 5687 5687 5687 5686 5685 5684 5683 5683 5683 5683 5682 5682 5682 5682 5682 5682 5681 5680 5680 5679 5679 5678 5678 5678 5678 5677
5711 5714 5721 5719 5715 5717 5717 5716 5716 5715 5714 5712 5712 5712 5712 5712 5709 5704 5700 5699 5701 5696 5696 5702 5702 5704 5710 5709 5707 5704 5701 5702 5701 5699 5698 5694 5692 5690 5687 5686 5685 5684 5684 5683 5682 5681 5679 5679 5677 5677 5675 5674 5674 5673 5674 5674 5674 5674 5675 5674 5675 5675 5676 5676 5675 5675 5675 5675 5674 5674 5673 5673 5673 5673 5673 5673 5673 5672 5672 5670 5669 5668 5668 5668 5668 5668
5703 5704 5712 5713 5707 5706 5708 5708 5707 5707 5707 5704 5704 5706 5706 5702 5699 5697 5692 5690 5691 5686 5685 5692 5695 5697 5700 5700 5699 5696 5693 5694 5693 5692 5689 5685 5684 5683 5680 5679 5677 5675 5674 5673 5672 5671 5671 5671 5669 5668 5667 5666 5666 5665 5664 5664 5664 5664 5665 5665 5664 5664 5665 5665 5665 5665 5665 5665 5665 5665 5664 5664 5664 5664 5664 5664 5664 5664 5663 5661 5660 5660 5659 5658 5658 5658
5694 5693 5701 5707 5702 5697 5698 5700 5699 5699 5699 5696 5695 5696 5695 5692 5691 5690 5685 5683 5682 5678 5676 5681 5684 5686 5689 5693 5692 5686 5684 5685 5682 5682 5681 5677 5677 5675 5672 5671 5669 5668 5667 5664 5663 5662 5661 5661 5660 5659 5659 5658 5658 5657 5656 5655 5654 5654 5654 5655 5655 5655 5655 5655 5655 5655 5655 5655 5655 5654 5654 5654 5654 5654 5654 5654 5655 5654 5654 5652 5651 5651 5650 5649 5649 5649
5688 5683 5686 5696 5697 5690 5688 5691 5693 5693 5691 5688 5686 5684 5684 5683 5682 5681 5678 5677 5675 5670 5668 5670 5670 5673 5678 5684 5684 5678 5676 5675 5672 5672 5671 5668 5667 5666 5664 5663 5661 5661 5659 5658 5657 5656 5654 5654 5652 5651 5650 5650 5649 5648 5648 5647 5645 5645 5644 5643 5644 5644 5645 5645 5646 5646 5645 5645 5644 5644 5644 5644 5643 5644 5643 5644 5644 5644 5643 5642 5641 5641 5640 5640 5640 5639
5680 5676 5674 5680 5686 5683 5681 5682 5683 5683 5682 5679 5677 5675 5675 5675 5673 5671 5669 5671 5669 5662 5660 5659 5657 5661 5667 5671 5672 5669 5666 5665 5663 5663 5662 5660 5659 5657 5655 5654 5652 5652 5651 5650 5649 5648 5647 5646 5644 5643 5641 5641 5640 5639 5638 5638 5636 5636 5635 5634 5633 5633 5633 5633 5633 5634 5634 5634 5634 5633 5633 5633 5633 5633 5633 5633 5633 5633 5633 5632 5631 5631 5630 5631 5630 5630
5672 5669 5665 5667 5671 5674 5676 5674 5671 5671 5671 5670 5668 5668 5668 5667 5666 5661 5656 5661 5662 5653 5651 5651 5645 5649 5657 5659 5660 5660 5656 5656 5655 5654 5653 5651 5649 5646 5645 5644 5642 5642 5641 5641 5640 5638 5637 5636 5635 5634 5632 5631 5631 5629 5628 5628 5627 5626 5626 5625 5624 5623 5623 5622 5622 5622 5622 5623 5623 5623 5622 5622 5623 5623 5622 5622 5622 5622 5622 5622 5621 5621 5621 5621 5620 5620
5664 5661 5657 5657 5659 5663 5667 5666 5662 5660 5660 5660 5658 5659 5661 5659 5659 5654 5647 5651 5652 5644 5644 5644 5635 5637 5647 5650 5649 5648 5647 5647 5646 5644 5643 5641 5639 5637 5635 5633 5632 5632 5631 5630 5629 5628 5627 5626 5625 5623 5622 5621 5620 5619 5618 5617 5617 5616 5615 5615 5614 5613 5613 5613 5612 5612 5611 5612 5612 5612 5612 5612 5612 5612 5612 5612 5612 5611 5611 5611 5611 5610 5610 5610 5610 5610
5658 5654 5650 5648 5650 5652 5655 5657 5655 5652 5652 5651 5650 5652 5653 5652 5651 5647 5642 5642 5640 5636 5639 5637 5627 5628 5638 5642 5640 5639 5638 5638 5636 5635 5634 5631 5630 5628 5626 5624 5623 5621 5620 5619 5618 5618 5617 5616 5614 5613 5611 5610 5608 5608 5607 5606 5605 5605 5604 5604 5603 5603 5602 5602 5602 5602 5601 5601 5601 5601 5602 5602 5601 5601 5601 5601 5601 5600 5600 5600 5600 5599 5599 5599 5599 5599
5650 5648 5645 5642 5641 5642 5644 5647 5647 5645 5644 5642 5642 5644 5645 5646 5645 5640 5637 5636 5629 5627 5632 5628 5619 5622 5630 5631 5631 5631 5629 5628 5627 5625 5623 5622 5620 5619 5617 5615 5613 5611 5609 5608 5606 5605 5604 5603 5602 5601 5600 5599 5597 5596 5595 5593 5592 5591 5590 5590 5590 5590 5590 5590 5590 5590 5590 5590 5589 5589 5590 5590 5590 5590 5589 5589 5589 5589 5589 5589 5589 5588 5588 5588 5587 5587
5641 5640 5640 5637 5633 5633 5635 5637 5638 5637 5635 5634 5634 5635 5635 5636 5635 5631 5630 5626 5619 5618 5621 5617 5613 5616 5621 5621 5621 5621 5619 5617 5615 5614 5612 5611 5610 5608 5607 5604 5603 5601 5599 5597 5595 5593 5591 5590 5589 5588 5587 5586 5585 5584 5582 5581 5579 5577 5576 5575 5576 5576 5577 5577 5578 5577 5577 5578 5577 5577 5577 5577 5578 5578 5577 5577 5577 5577 5577 5577 5577 5577 5576 5576 5576 5576
5632 5630 5632 5631 5627 5626 5626 5628 5630 5628 5625 5623 5624 5626 5626 5626 5626 5624 5618 5613 5611 5609 5606 5607 5608 5607 5609 5613 5613 5610 5607 5605 5604 5603 5602 5600 5599 5598 5597 5594 5593 5591 5588 5587 5585 5583 5581 5579 5578 5576 5575 5573 5572 5570 5569 5567 5566 5564 5563 5561 5560 5561 5562 5563 5564 5565 5565 5565 5565 5565 5565 5564 5564 5564 5565 5565 5564 5564 5564 5564 5564 5564 5564 5564 5565 5565
5623 5620 5624 5624 5619 5619 5620 5620 5621 5618 5614 5613 5613 5615 5617 5617 5617 5615 5608 5605 5606 5599 5591 5599 5605 5598 5597 5604 5603 5598 5595 5592 5591 5591 5590 5589 5588 5587 5586 5584 5582 5580 5578 5576 5574 5572 5571 5569 5567 5566 5564 5562 5560 5558 5556 5554 5553 5551 5550 5548 5547 5546 5546 5546 5547 5548 5550 5551 5551 5552 5552 5551 5551 5551 5551 5551 5551 5550 5550 5550 5551 5551 5551 5551 5552 5552
5613 5610 5616 5615 5609 5611 5613 5612 5611 5608 5604 5604 5603 5603 5606 5607 5607 5605 5599 5598 5598 5588 5582 5590 5594 5586 5586 5591 5588 5584 5583 5581 5578 5578 5577 5577 5576 5575 5574 5572 5571 5569 5567 5565 5563 5562 5560 5558 5556 5554 5552 5550 5548 5546 5545 5543 5541 5539 5537 5535 5534 5533 5532 5532 5531 5531 5532 5534 5535 5537 5538 5538 5538 5538 5537 5537 5537 5537 5536 5536 5536 5536 5537 5537 5537 5538
5604 5602 5606 5604 5599 5601 5605 5604 5602 5597 5593 5593 5593 5593 5594 5596 5596 5593 5589 5590 5588 5580 5577 5580 5577 5573 5576 5578 5574 5572 5571 5568 5566 5565 5564 5563 5563 5562 5561 5560 5559 5558 5556 5554 5553 5551 5549 5547 5545 5543 5540 5538 5536 5534 5533 5532 5530 5529 5526 5524 5522 5520 5519 5518 5518 5517 5517 5517 5518 5520 5521 5522 5523 5524 5524 5523 5524 5523 5523 5523 5522 5522 5522 5522 5522 5523
5595 5595 5595 5593 5588 5589 5594 5596 5591 5585 5583 5582 5582 5584 5586 5586 5584 5581 5580 5580 5576 5570 5570 5569 5562 5560 5564 5565 5562 5560 5557 5555 5554 5553 5552 5552 5551 5550 5549 5548 5548 5547 5545 5544 5542 5540 5538 5536 5535 5533 5531 5528 5525 5523 5521 5520 5519 5517 5515 5513 5511 5509 5507 5506 5505 5504 5503 5503 5503 5503 5504 5505 5506 5507 5508 5508 5508 5508 5509 5508 5508 5508 5507 5507 5507 5508
5588 5585 5585 5584 5577 5576 5584 5584 5577 5574 5572 5568 5570 5577 5580 5576 5572 5570 5569 5568 5565 5560 5558 5556 5551 5549 5551 5550 5548 5546 5543 5543 5543 5542 5542 5541 5539 5538 5537 5537 5536 5535 5534 5532 5531 5529 5527 5525 5523 5521 5519 5517 5514 5511 5509 5507 5506 5505 5503 5502 5499 5497 5495 5493 5491 5491 5490 5489 5488 5488 5488 5489 5490 5491 5491 5491 5492 5492 5493 5493 5493 5493 5493 5493 5493 5493
5580 5576 5575 5574 5565 5564 5573 5571 5563 5562 5555 5553 5565 5573 5569 5564 5561 5558 5556 5556 5556 5552 5545 5541 5540 5539 5538 5536 5535 5532 5531 5531 5531 5532 5532 5530 5528 5527 5525 5525 5524 5523 5522 5520 5519 5517 5515 5513 5511 5509 5507 5505 5501 5499 5496 5494 5492 5491 5490 5489 5486 5484 5482 5480 5478 5476 5475 5474 5474 5473 5472 5472 5473 5474 5474 5474 5474 5475 5476 5477 5477 5477 5477 5477 5478 5478
5572 5568 5565 5563 5554 5550 5559 5559 5550 5543 5538 5544 5560 5564 5555 5551 5549 5546 5544 5545 5545 5541 5534 5529 5528 5527 5525 5524 5523 5519 5517 5518 5519 5521 5521 5518 5515 5514 5514 5514 5513 5511 5509 5508 5506 5505 5502 5500 5498 5496 5494 5492 5489 5486 5483 5480 5478 5476 5475 5474 5472 5470 5468 5466 5465 5463 5461 5459 5458 5457 5457 5456 5456 5457 5457 5457 5457 5457 5458 5459 5460 5460 5459 5460 5462 5463
5562 5560 5556 5552 5545 5539 5544 5546 5535 5525 5529 5540 5547 5547 5543 5539 5536 5533 5533 5534 5533 5528 5523 5519 5516 5515 5514 5512 5510 5507 5505 5506 5507 5508 5509 5504 5500 5500 5502 5502 5500 5498 5496 5495 5493 5491 5489 5486 5485 5483 5481 5478 5475 5472 5468 5464 5462 5461 5460 5459 5457 5455 5453 5451 5450 5449 5446 5445 5443 5442 5440 5439 5439 5439 5440 5440 5440 5440 5440 5441 5441 5442 5441 5441 5443 5445
5550 5548 5544 5540 5537 5530 5529 5530 5521 5515 5522 5529 5529 5530 5530 5526 5524 5522 5520 5520 5520 5515 5512 5509 5506 5505 5503 5500 5497 5495 5494 5494 5495 5498 5497 5491 5486 5488 5489 5489 5487 5485 5483 5481 5479 5477 5475 5472 5470 5468 5466 5464 5461 5457 5453 5449 5446 5445 5445 5444 5441 5439 5437 5435 5434 5433 5430 5428 5428 5427 5425 5423 5422 5421 5421 5421 5421 5422 5423 5423 5423 5424 5423 5423 5425 5426
5539 5537 5533 5528 5525 5522 5518 5515 5511 5508 5509 5514 5517 5519 5517 5513 5513 5510 5504 5505 5507 5504 5500 5499 5497 5494 5492 5489 5486 5483 5481 5481 5483 5488 5487 5480 5475 5476 5477 5476 5475 5473 5470 5468 5466 5463 5461 5458 5456 5455 5453 5451 5449 5445 5439 5435 5433 5432 5431 5430 5427 5424 5423 5421 5419 5416 5413 5412 5412 5411 5409 5407 5405 5404 5403 5402 5402 5403 5404 5405 5406 5406 5406 5406 5407 5408
5529 5526 5524 5518 5513 5513 5509 5503 5502 5499 5497 5502 5509 5510 5507 5505 5504 5498 5491 5491 5496 5495 5490 5487 5487 5484 5480 5477 5475 5472 5469 5468 5471 5477 5478 5471 5466 5466 5466 5465 5464 5461 5458 5456 5453 5451 5449 5446 5444 5443 5441 5439 5437 5434 5428 5424 5421 5419 5417 5416 5413 5410 5409 5408 5405 5401 5398 5397 5396 5395 5393 5391 5389 5387 5386 5384 5384 5384 5385 5386 5387 5388 5388 5388 5390 5392
5519 5516 5514 5507 5502 5503 5500 5493 5491 5489 5487 5491 5498 5500 5498 5494 5491 5486 5479 5478 5485 5487 5480 5475 5475 5472 5468 5466 5464 5460 5459 5458 5460 5465 5466 5462 5458 5457 5455 5454 5452 5449 5446 5444 5441 5438 5436 5434 5432 5430 5429 5426 5424 5421 5417 5413 5409 5406 5404 5402 5399 5396 5395 5392 5389 5386 5384 5383 5382 5380 5378 5376 5373 5371 5370 5368 5367 5366 5366 5367 5368 5369 5370 5370 5372 5374
5508 5505 5502 5497 5494 5494 5490 5484 5482 5481 5480 5483 5488 5490 5488 5482 5478 5476 5471 5468 5473 5475 5470 5465 5464 5461 5457 5455 5452 5451 5451 5450 5450 5452 5454 5452 5449 5447 5445 5443 5440 5437 5435 5432 5429 5425 5422 5421 5420 5418 5416 5414 5410 5407 5404 5399 5396 5393 5390 5387 5385 5383 5380 5376 5373 5371 5370 5369 5367 5366 5364 5362 5359 5357 5355 5352 5351 5350 5349 5350 5350 5350 5351 5352 5353 5355
5496 5493 5491 5488 5487 5486 5481 5476 5473 5472 5475 5479 5480 5479 5476 5471 5469 5468 5465 5462 5463 5462 5459 5455 5452 5450 5449 5447 5444 5444 5444 5443 5441 5441 5442 5441 5439 5437 5435 5432 5429 5426 5424 5420 5417 5413 5410 5409 5408 5405 5404 5402 5397 5393 5389 5384 5381 5379 5376 5373 5371 5369 5365 5360 5358 5357 5355 5354 5353 5351 5349 5347 5344 5342 5340 5338 5335 5333 5334 5334 5333 5333 5333 5333 5334 5336
5485 5483 5481 5480 5479 5477 5474 5469 5463 5463 5470 5475 5473 5469 5465 5463 5462 5460 5458 5456 5454 5451 5449 5446 5443 5442 5441 5440 5439 5437 5436 5435 5433 5432 5431 5430 5429 5427 5425 5422 5419 5416 5413 5409 5405 5401 5397 5397 5395 5393 5391 5389 5384 5379 5374 5369 5366 5364 5361 5358 5356 5352 5348 5345 5343 5341 5339 5338 5337 5335 5333 5330 5328 5326 5324 5322 5319 5317 5318 5319 5317 5316 5316 5316 5316 5317
5476 5473 5473 5474 5472 5467 5464 5460 5456 5457 5464 5467 5463 5459 5457 5454 5453 5451 5449 5447 5445 5443 5440 5438 5437 5436 5433 5432 5431 5429 5427 5427 5425 5423 5422 5421 5419 5417 5414 5411 5408 5405 5402 5398 5394 5389 5385 5384 5383 5381 5379 5376 5371 5365 5360 5355 5352 5349 5346 5343 5340 5336 5332 5329 5327 5324 5322 5321 5319 5317 5315 5313 5311 5309 5307 5305 5303 5300 5301 5303 5301 5299 5299 5299 5298 5299
5468 5468 5467 5465 5462 5458 5455 5453 5451 5454 5458 5456 5452 5451 5449 5445 5443 5442 5440 5438 5438 5437 5434 5431 5430 5429 5426 5423 5422 5420 5419 5418 5416 5415 5414 5412 5410 5407 5403 5400 5397 5393 5390 5387 5383 5379 5375 5372 5370 5369 5366 5364 5358 5352 5347 5341 5336 5334 5332 5328 5324 5320 5316 5313 5309 5306 5305 5304 5301 5299 5297 5295 5292 5291 5289 5288 5286 5283 5283 5286 5285 5283 5282 5282 5281 5281
5462 5463 5459 5455 5452 5450 5449 5448 5447 5449 5451 5447 5442 5441 5440 5437 5436 5434 5430 5430 5430 5430 5427 5424 5423 5423 5420 5415 5413 5412 5411 5410 5408 5407 5405 5403 5401 5397 5393 5390 5387 5383 5380 5377 5373 5369 5365 5361 5358 5356 5354 5353 5347 5340 5334 5329 5322 5318 5316 5313 5308 5304 5300 5296 5293 5290 5288 5286 5283 5281 5280 5277 5275 5274 5272 5270 5268 5266 5266 5268 5267 5265 5265 5265 5264 5264
5456 5457 5450 5445 5444 5443 5442 5444 5444 5442 5442 5439 5434 5432 5431 5430 5430 5427 5423 5423 5422 5421 5419 5416 5414 5414 5412 5408 5405 5404 5403 5401 5399 5398 5396 5393 5391 5387 5383 5380 5377 5374 5370 5367 5362 5359 5354 5350 5348 5345 5342 5341 5336 5328 5322 5318 5311 5304 5300 5297 5293 5287 5282 5279 5276 5273 5272 5270 5267 5265 5262 5259 5257 5256 5254 5253 5250 5248 5248 5249 5248 5248 5248 5248 5247 5248
5451 5450 5441 5437 5437 5435 5434 5440 5441 5435 5432 5431 5427 5426 5425 5423 5421 5420 5417 5416 5415 5413 5411 5408 5406 5405 5403 5400 5398 5396 5395 5393 5390 5388 5387 5384 5381 5377 5374 5371 5368 5365 5361 5357 5352 5348 5344 5340 5338 5334 5330 5328 5324 5317 5310 5306 5300 5292 5285 5281 5277 5272 5267 5263 5259 5257 5255 5253 5251 5248 5245 5242 5239 5238 5237 5236 5234 5232 5231 5231 5230 5229 5230 5231 5231 5231
5444 5441 5434 5431 5431 5427 5427 5433 5434 5427 5424 5424 5422 5420 5419 5416 5414 5413 5410 5408 5407 5406 5404 5401 5399 5397 5395 5393 5391 5389 5387 5384 5381 5379 5378 5375 5371 5368 5364 5361 5359 5355 5352 5347 5343 5338 5334 5330 5326 5322 5319 5315 5311 5305 5298 5293 5287 5280 5273 5267 5263 5258 5254 5250 5246 5242 5240 5238 5235 5232 5229 5226 5224 5222 5220 5220 5219 5217 5216 5215 5214 5212 5213 5215 5215 5213
5435 5431 5428 5426 5423 5420 5421 5425 5424 5418 5417 5419 5417 5414 5412 5410 5408 5407 5404 5401 5400 5398 5396 5394 5392 5390 5387 5385 5383 5381 5379 5376 5373 5371 5369 5366 5363 5359 5356 5353 5349 5346 5342 5338 5334 5329 5324 5319 5315 5311 5308 5303 5297 5291 5286 5280 5274 5268 5262 5256 5250 5245 5240 5237 5233 5230 5227 5224 5221 5218 5215 5212 5210 5208 5206 5205 5205 5203 5202 5201 5199 5196 5197 5200 5199 5197
5428 5424 5422 5417 5414 5414 5416 5418 5414 5408 5409 5414 5413 5408 5404 5403 5402 5400 5397 5395 5392 5391 5389 5386 5384 5382 5380 5378 5376 5373 5371 5368 5365 5363 5360 5358 5354 5351 5347 5344 5341 5337 5333 5329 5324 5320 5315 5310 5305 5301 5296 5291 5285 5279 5273 5268 5263 5257 5251 5244 5239 5234 5229 5226 5223 5220 5217 5213 5209 5206 5202 5200 5198 5196 5194 5192 5192 5190 5189 5189 5186 5183 5183 5185 5185 5183
5423 5419 5414 5408 5407 5408 5410 5410 5406 5400 5401 5405 5406 5401 5399 5397 5394 5391 5390 5388 5385 5384 5381 5378 5376 5374 5372 5370 5368 5365 5363 5361 5358 5355 5353 5350 5346 5343 5340 5336 5332 5329 5324 5319 5314 5311 5307 5301 5296 5291 5286 5281 5274 5268 5262 5258 5252 5246 5240 5235 5229 5224 5220 5216 5212 5209 5206 5202 5198 5195 5192 5189 5188 5185 5183 5181 5180 5178 5178 5178 5177 5174 5172 5172 5171 5169